This demonstration page uses our WeatherBlox Daily Observations layout. Learn more.

Left ArrowRight Arrow

Hourly Observations for May 10, 2016

Temp ( °F °C ) Dew Point ( °F °C ) Humidity (%) Winds ( mph kmh ) Pressure ( in mb ) Visibility ( mi km ) Precip ( " mm )
12:53 am 00:53 Clear 63 17.2 56 13.3 78 78 NNW 6 9 29.92 1013 10 16 0.00 0.00
1:53 am 01:53 Clear 63 17.2 56 13.3 78 78 N 7 11 29.92 1013 10 16 0.00 0.00
2:53 am 02:53 Clear 60 15.6 55 12.8 84 84 NW 3 6 29.93 1014 10 16 0.00 0.00
3:53 am 03:53 Clear 62 16.7 51 10.6 67 67 NNW 3 6 29.93 1014 10 16 0.00 0.00
4:53 am 04:53 Clear 60 15.6 49 9.4 67 67 NNW 6 9 29.93 1014 10 16 0.00 0.00
5:53 am 05:53 Clear 63 17.2 41 5 45 45 N 12 19 29.93 1014 10 16 0.00 0.00
6:53 am 06:53 Sunny 64 17.8 41 5 43 43 NNW 9 15 29.95 1014 10 16 0.00 0.00
7:53 am 07:53 Sunny 68 20 38 3.3 33 33 N 10 17 29.96 1015 10 16 0.00 0.00
8:53 am 08:53 Sunny 71 21.7 36 2.2 28 28 NNW 12 19 29.96 1015 10 16 0.00 0.00
9:53 am 09:53 Sunny 74 23.3 35 1.7 24 24 N 17 28 29.97 1015 10 16 0.00 0.00
10:53 am 10:53 Sunny 78 25.6 33 0.6 19 19 N 21 33 29.96 1015 10 16 0.00 0.00
11:53 am 11:53 Sunny 82 27.8 34 1.1 18 18 NNE 18 30 29.96 1015 10 16 0.00 0.00
12:53 pm 12:53 Sunny 84 28.9 32 0 15 15 N 13 20 29.94 1014 10 16 0.00 0.00
1:53 pm 13:53 Sunny 84 28.9 29 -1.7 13 13 N 17 28 29.93 1014 10 16 0.00 0.00
2:53 pm 14:53 Sunny 85 29.4 30 -1.1 14 14 NNW 9 15 29.92 1013 10 16 0.00 0.00
3:53 pm 15:53 Sunny 87 30.6 33 0.6 14 14 NW 9 15 29.91 1013 10 16 0.00 0.00
4:53 pm 16:53 Sunny 88 31.1 30 -1.1 12 12 N 10 17 29.89 1012 10 16 0.00 0.00
5:53 pm 17:53 Sunny 87 30.6 29 -1.7 12 12 N 7 11 29.88 1012 10 16 0.00 0.00
6:53 pm 18:53 Sunny 86 30 31 -0.6 14 14 N 6 9 29.88 1012 10 16 0.00 0.00
7:53 pm 19:53 Sunny 81 27.2 36 2.2 20 20 NNW 6 9 29.88 1012 10 16 0.00 0.00
8:53 pm 20:53 Clear 77 25 35 1.7 22 22 NNW 6 9 29.90 1013 10 16 0.00 0.00
9:53 pm 21:53 Clear 71 21.7 43 6.1 36 36 NNW 3 6 29.93 1014 10 16 0.00 0.00
10:53 pm 22:53 Clear 68 20 43 6.1 40 40 NW 7 11 29.95 1014 10 16 0.00 0.00
11:53 pm 23:53 Clear 68 20 40 4.4 36 36 NNW 7 11 29.96 1014 10 16 0.00 0.00

Powered by Vaisala Xweather